Time,TemperatureF,DewpointF,PressureIn,WindDirection,WindDirectionDegrees,WindSpeedMPH,WindSpeedGustMPH,Humidity,HourlyPrecipIn,Conditions,Clouds,dailyrainin,SoftwareType,DateUTC
2013-04-10 00:03:00,60.0,-99.9,30.13,SW,214,13.0,13.0,-999,-99.99,,,-99.99,,2013-04-10 04:03:00,
2013-04-10 00:13:00,61.0,-99.9,30.13,SW,214,13.0,13.0,-999,-99.99,,,-99.99,,2013-04-10 04:13:00,
2013-04-10 00:23:00,61.0,-99.9,30.13,SW,214,13.0,14.0,-999,-99.99,,,-99.99,,2013-04-10 04:23:00,
2013-04-10 00:33:00,61.0,-99.9,30.12,SSW,212,13.0,13.0,-999,-99.99,,,-99.99,,2013-04-10 04:33:00,
2013-04-10 00:43:00,61.0,-99.9,30.12,SSW,213,12.0,13.0,-999,-99.99,,,-99.99,,2013-04-10 04:43:00,
2013-04-10 00:53:00,61.0,-99.9,30.12,SSW,213,12.0,12.0,-999,-99.99,,,-99.99,,2013-04-10 04:53:00,
2013-04-10 01:03:00,60.0,-99.9,30.11,SSW,201,11.0,12.0,-999,-99.99,,,-99.99,,2013-04-10 05:03:00,
2013-04-10 01:13:00,60.0,-99.9,30.11,SSW,206,9.0,11.0,-999,-99.99,,,-99.99,,2013-04-10 05:13:00,
2013-04-10 01:23:00,60.0,-99.9,30.11,SSW,200,11.0,12.0,-999,-99.99,,,-99.99,,2013-04-10 05:23:00,
2013-04-10 01:33:00,60.0,-99.9,30.11,SSW,206,11.0,12.0,-999,-99.99,,,-99.99,,2013-04-10 05:33:00,
2013-04-10 01:43:00,60.0,-99.9,30.11,SSW,211,11.0,12.0,-999,-99.99,,,-99.99,,2013-04-10 05:43:00,
2013-04-10 01:53:00,61.0,-99.9,30.11,SSW,211,12.0,12.0,-999,-99.99,,,-99.99,,2013-04-10 05:53:00,
2013-04-10 02:03:00,61.0,-99.9,30.11,SSW,212,12.0,12.0,-999,-99.99,,,-99.99,,2013-04-10 06:03:00,
2013-04-10 02:12:00,61.0,-99.9,30.11,SSW,213,11.0,11.0,-999,-99.99,,,-99.99,,2013-04-10 06:12:00,
2013-04-10 02:22:00,60.0,-99.9,30.10,SW,214,11.0,12.0,-999,-99.99,,,-99.99,,2013-04-10 06:22:00,
2013-04-10 02:32:00,60.0,-99.9,30.10,SW,215,11.0,11.0,-999,-99.99,,,-99.99,,2013-04-10 06:32:00,
2013-04-10 02:43:00,62.0,-99.9,30.10,SW,221,10.0,11.0,-999,-99.99,,,-99.99,,2013-04-10 06:43:00,
2013-04-10 02:52:00,61.0,-99.9,30.09,SSW,212,10.0,10.0,-999,-99.99,,,-99.99,,2013-04-10 06:52:00,
2013-04-10 03:02:00,60.0,-99.9,30.09,SSW,208,9.0,9.0,-999,-99.99,,,-99.99,,2013-04-10 07:02:00,
2013-04-10 03:12:00,60.0,-99.9,30.08,SSW,207,8.0,8.0,-999,-99.99,,,-99.99,,2013-04-10 07:12:00,
2013-04-10 03:23:00,60.0,-99.9,30.08,SSW,206,8.0,8.0,-999,-99.99,,,-99.99,,2013-04-10 07:23:00,
2013-04-10 03:33:00,61.0,-99.9,30.08,SSW,209,8.0,9.0,-999,-99.99,,,-99.99,,2013-04-10 07:33:00,
2013-04-10 03:43:00,60.0,-99.9,30.08,SSW,201,8.0,9.0,-999,-99.99,,,-99.99,,2013-04-10 07:43:00,
2013-04-10 03:52:00,60.0,-99.9,30.08,SSW,206,7.0,7.0,-999,-99.99,,,-99.99,,2013-04-10 07:52:00,
2013-04-10 04:02:00,61.0,-99.9,30.08,SSW,213,6.0,7.0,-999,-99.99,,,-99.99,,2013-04-10 08:02:00,
2013-04-10 04:12:00,60.0,-99.9,30.08,SSW,213,6.0,6.0,-999,-99.99,,,-99.99,,2013-04-10 08:12:00,
2013-04-10 04:22:00,60.0,-99.9,30.08,SW,221,7.0,7.0,-999,-99.99,,,-99.99,,2013-04-10 08:22:00,
2013-04-10 04:32:00,63.0,-99.9,30.09,SW,236,6.0,8.0,-999,-99.99,,,-99.99,,2013-04-10 08:32:00,
2013-04-10 04:43:00,62.0,-99.9,30.09,SW,230,6.0,7.0,-999,-99.99,,,-99.99,,2013-04-10 08:43:00,
2013-04-10 04:52:00,62.0,-99.9,30.09,SW,233,6.0,8.0,-999,-99.99,,,-99.99,,2013-04-10 08:52:00,
2013-04-10 05:02:00,62.0,-99.9,30.09,SW,229,6.0,6.0,-999,-99.99,,,-99.99,,2013-04-10 09:02:00,
2013-04-10 05:12:00,63.0,-99.9,30.09,SW,226,6.0,7.0,-999,-99.99,,,-99.99,,2013-04-10 09:12:00,
2013-04-10 05:23:00,63.0,-99.9,30.09,SW,228,7.0,7.0,-999,-99.99,,,-99.99,,2013-04-10 09:23:00,
2013-04-10 05:33:00,63.0,-99.9,30.10,SW,225,7.0,8.0,-999,-99.99,,,-99.99,,2013-04-10 09:33:00,
2013-04-10 05:43:00,63.0,-99.9,30.10,SW,228,6.0,8.0,-999,-99.99,,,-99.99,,2013-04-10 09:43:00,
2013-04-10 05:53:00,63.0,-99.9,30.10,SW,234,7.0,8.0,-999,-99.99,,,-99.99,,2013-04-10 09:53:00,
2013-04-10 06:03:00,63.0,-99.9,30.10,SW,232,7.0,9.0,-999,-99.99,,,-99.99,,2013-04-10 10:03:00,
2013-04-10 06:13:00,63.0,-99.9,30.10,SW,229,8.0,9.0,-999,-99.99,,,-99.99,,2013-04-10 10:13:00,
2013-04-10 06:23:00,63.0,-99.9,30.10,SW,232,7.0,8.0,-999,-99.99,,,-99.99,,2013-04-10 10:23:00,
2013-04-10 06:33:00,63.0,-99.9,30.10,WSW,238,7.0,9.0,-999,-99.99,,,-99.99,,2013-04-10 10:33:00,
2013-04-10 06:43:00,63.0,-99.9,30.10,SW,229,7.0,8.0,-999,-99.99,,,-99.99,,2013-04-10 10:43:00,
2013-04-10 06:53:00,63.0,-99.9,30.10,WSW,240,6.0,7.0,-999,-99.99,,,-99.99,,2013-04-10 10:53:00,
2013-04-10 07:03:00,62.0,-99.9,30.11,SW,222,5.0,6.0,-999,-99.99,,,-99.99,,2013-04-10 11:03:00,
2013-04-10 07:12:00,61.0,-99.9,30.11,SW,217,5.0,6.0,-999,-99.99,,,-99.99,,2013-04-10 11:12:00,
2013-04-10 07:22:00,61.0,-99.9,30.12,SW,225,4.0,5.0,-999,-99.99,,,-99.99,,2013-04-10 11:22:00,
2013-04-10 07:32:00,62.0,-99.9,30.12,WSW,246,4.0,4.0,-999,-99.99,,,-99.99,,2013-04-10 11:32:00,
2013-04-10 07:42:00,63.0,-99.9,30.13,WSW,248,4.0,4.0,-999,-99.99,,,-99.99,,2013-04-10 11:42:00,
2013-04-10 07:53:00,63.0,-99.9,30.13,SW,236,4.0,4.0,-999,-99.99,,,-99.99,,2013-04-10 11:53:00,
2013-04-10 08:03:00,64.0,-99.9,30.13,SW,220,4.0,4.0,-999,-99.99,,,-99.99,,2013-04-10 12:03:00,
2013-04-10 08:12:00,64.0,-99.9,30.13,SW,221,4.0,5.0,-999,-99.99,,,-99.99,,2013-04-10 12:12:00,
2013-04-10 08:23:00,63.0,-99.9,30.13,SSW,213,5.0,5.0,-999,-99.99,,,-99.99,,2013-04-10 12:23:00,
2013-04-10 08:33:00,63.0,-99.9,30.13,SSW,206,6.0,6.0,-999,-99.99,,,-99.99,,2013-04-10 12:33:00,
2013-04-10 08:43:00,63.0,-99.9,30.13,SW,228,5.0,7.0,-999,-99.99,,,-99.99,,2013-04-10 12:43:00,
2013-04-10 08:52:00,64.0,-99.9,30.14,SW,233,6.0,7.0,-999,-99.99,,,-99.99,,2013-04-10 12:52:00,
2013-04-10 09:02:00,66.0,-99.9,30.13,WSW,249,8.0,11.0,-999,-99.99,,,-99.99,,2013-04-10 13:02:00,
2013-04-10 09:12:00,67.0,-99.9,30.14,WSW,249,10.0,13.0,-999,-99.99,,,-99.99,,2013-04-10 13:12:00,
2013-04-10 09:23:00,68.0,-99.9,30.14,WSW,256,10.0,13.0,-999,-99.99,,,-99.99,,2013-04-10 13:23:00,
2013-04-10 09:33:00,69.0,-99.9,30.14,West,263,10.0,14.0,-999,-99.99,,,-99.99,,2013-04-10 13:33:00,
2013-04-10 09:43:00,69.0,-99.9,30.14,WSW,251,11.0,15.0,-999,-99.99,,,-99.99,,2013-04-10 13:43:00,
2013-04-10 09:53:00,69.0,-99.9,30.14,WSW,255,11.0,13.0,-999,-99.99,,,-99.99,,2013-04-10 13:53:00,
2013-04-10 10:02:00,70.0,-99.9,30.14,WSW,245,12.0,18.0,-999,-99.99,,,-99.99,,2013-04-10 14:02:00,
2013-04-10 10:13:00,71.0,-99.9,30.14,WSW,249,14.0,20.0,-999,-99.99,,,-99.99,,2013-04-10 14:13:00,
2013-04-10 10:22:00,72.0,-99.9,30.14,WSW,253,14.0,17.0,-999,-99.99,,,-99.99,,2013-04-10 14:22:00,
2013-04-10 10:33:00,72.0,-99.9,30.14,WSW,249,15.0,20.0,-999,-99.99,,,-99.99,,2013-04-10 14:33:00,
2013-04-10 10:42:00,72.0,-99.9,30.14,WSW,244,17.0,20.0,-999,-99.99,,,-99.99,,2013-04-10 14:42:00,
2013-04-10 10:52:00,73.0,-99.9,30.14,WSW,243,14.0,17.0,-999,-99.99,,,-99.99,,2013-04-10 14:52:00,
2013-04-10 11:03:00,73.0,-99.9,30.14,SW,232,13.0,19.0,-999,-99.99,,,-99.99,,2013-04-10 15:03:00,
2013-04-10 11:12:00,74.0,-99.9,30.14,SW,222,15.0,19.0,-999,-99.99,,,-99.99,,2013-04-10 15:12:00,
2013-04-10 11:23:00,74.0,-99.9,30.14,SW,231,15.0,17.0,-999,-99.99,,,-99.99,,2013-04-10 15:23:00,
2013-04-10 11:33:00,74.0,-99.9,30.14,SW,215,14.0,18.0,-999,-99.99,,,-99.99,,2013-04-10 15:33:00,
2013-04-10 11:43:00,64.0,-99.9,30.14,South,177,13.0,15.0,-999,-99.99,,,-99.99,,2013-04-10 15:43:00,
2013-04-10 11:53:00,62.0,-99.9,30.14,South,190,9.0,13.0,-999,-99.99,,,-99.99,,2013-04-10 15:53:00,
2013-04-10 12:03:00,62.0,-99.9,30.14,South,191,7.0,9.0,-999,-99.99,,,-99.99,,2013-04-10 16:03:00,
2013-04-10 12:13:00,63.0,-99.9,30.14,South,180,9.0,10.0,-999,-99.99,,,-99.99,,2013-04-10 16:13:00,
2013-04-10 12:23:00,62.0,-99.9,30.13,South,178,10.0,11.0,-999,-99.99,,,-99.99,,2013-04-10 16:23:00,
2013-04-10 12:33:00,63.0,-99.9,30.13,SSW,193,9.0,11.0,-999,-99.99,,,-99.99,,2013-04-10 16:33:00,
2013-04-10 12:43:00,64.0,-99.9,30.13,SSW,200,8.0,11.0,-999,-99.99,,,-99.99,,2013-04-10 16:43:00,
2013-04-10 12:53:00,64.0,-99.9,30.12,SSW,203,10.0,11.0,-999,-99.99,,,-99.99,,2013-04-10 16:53:00,
2013-04-10 13:03:00,64.0,-99.9,30.11,South,189,17.0,18.0,-999,-99.99,,,-99.99,,2013-04-10 17:03:00,
2013-04-10 13:13:00,65.0,-99.9,30.11,South,185,21.0,22.0,-999,-99.99,,,-99.99,,2013-04-10 17:13:00,
2013-04-10 13:23:00,65.0,-99.9,30.11,South,186,22.0,23.0,-999,-99.99,,,-99.99,,2013-04-10 17:23:00,
2013-04-10 13:34:00,65.0,-99.9,30.10,South,188,21.0,22.0,-999,-99.99,,,-99.99,,2013-04-10 17:34:00,
2013-04-10 13:43:00,65.0,-99.9,30.10,South,188,22.0,24.0,-999,-99.99,,,-99.99,,2013-04-10 17:43:00,
2013-04-10 13:53:00,66.0,-99.9,30.10,South,191,21.0,23.0,-999,-99.99,,,-99.99,,2013-04-10 17:53:00,
2013-04-10 14:03:00,65.0,-99.9,30.09,South,189,20.0,22.0,-999,-99.99,,,-99.99,,2013-04-10 18:03:00,
2013-04-10 14:12:00,65.0,-99.9,30.09,South,185,20.0,22.0,-999,-99.99,,,-99.99,,2013-04-10 18:12:00,
2013-04-10 14:23:00,66.0,-99.9,30.09,South,191,19.0,20.0,-999,-99.99,,,-99.99,,2013-04-10 18:23:00,
2013-04-10 14:33:00,65.0,-99.9,30.09,South,189,21.0,23.0,-999,-99.99,,,-99.99,,2013-04-10 18:33:00,
2013-04-10 14:43:00,65.0,-99.9,30.09,South,189,21.0,22.0,-999,-99.99,,,-99.99,,2013-04-10 18:43:00,
2013-04-10 14:53:00,65.0,-99.9,30.09,South,191,20.0,23.0,-999,-99.99,,,-99.99,,2013-04-10 18:53:00,
2013-04-10 15:03:00,65.0,-99.9,30.09,South,189,20.0,21.0,-999,-99.99,,,-99.99,,2013-04-10 19:03:00,
2013-04-10 15:13:00,65.0,-99.9,30.09,SSW,194,15.0,18.0,-999,-99.99,,,-99.99,,2013-04-10 19:13:00,
2013-04-10 15:22:00,65.0,-99.9,30.09,SSW,194,19.0,21.0,-999,-99.99,,,-99.99,,2013-04-10 19:22:00,
2013-04-10 15:33:00,66.0,-99.9,30.08,South,189,21.0,24.0,-999,-99.99,,,-99.99,,2013-04-10 19:33:00,
2013-04-10 15:42:00,66.0,-99.9,30.07,SSW,196,20.0,22.0,-999,-99.99,,,-99.99,,2013-04-10 19:42:00,
2013-04-10 15:53:00,66.0,-99.9,30.07,South,190,19.0,22.0,-999,-99.99,,,-99.99,,2013-04-10 19:53:00,
2013-04-10 16:03:00,67.0,-99.9,30.06,South,190,20.0,22.0,-999,-99.99,,,-99.99,,2013-04-10 20:03:00,
2013-04-10 16:12:00,67.0,-99.9,30.06,SSW,194,22.0,24.0,-999,-99.99,,,-99.99,,2013-04-10 20:12:00,
2013-04-10 16:23:00,67.0,-99.9,30.05,SSW,195,22.0,24.0,-999,-99.99,,,-99.99,,2013-04-10 20:23:00,
2013-04-10 16:33:00,67.0,-99.9,30.05,SSW,196,21.0,23.0,-999,-99.99,,,-99.99,,2013-04-10 20:33:00,
2013-04-10 16:43:00,68.0,-99.9,30.04,SSW,196,21.0,23.0,-999,-99.99,,,-99.99,,2013-04-10 20:43:00,
2013-04-10 16:53:00,68.0,-99.9,30.04,SSW,193,20.0,21.0,-999,-99.99,,,-99.99,,2013-04-10 20:53:00,
2013-04-10 17:03:00,66.0,-99.9,30.04,South,189,20.0,21.0,-999,-99.99,,,-99.99,,2013-04-10 21:03:00,
2013-04-10 17:13:00,66.0,-99.9,30.04,South,189,20.0,21.0,-999,-99.99,,,-99.99,,2013-04-10 21:13:00,
2013-04-10 17:22:00,66.0,-99.9,30.04,South,191,22.0,23.0,-999,-99.99,,,-99.99,,2013-04-10 21:22:00,
2013-04-10 17:33:00,66.0,-99.9,30.04,South,191,21.0,23.0,-999,-99.99,,,-99.99,,2013-04-10 21:33:00,
2013-04-10 17:43:00,66.0,-99.9,30.04,SSW,193,22.0,23.0,-999,-99.99,,,-99.99,,2013-04-10 21:43:00,
2013-04-10 17:53:00,65.0,-99.9,30.04,SSW,193,21.0,23.0,-999,-99.99,,,-99.99,,2013-04-10 21:53:00,
2013-04-10 18:03:00,65.0,-99.9,30.04,SSW,195,19.0,21.0,-999,-99.99,,,-99.99,,2013-04-10 22:03:00,
2013-04-10 18:13:00,65.0,-99.9,30.04,South,188,20.0,22.0,-999,-99.99,,,-99.99,,2013-04-10 22:13:00,
2013-04-10 18:23:00,65.0,-99.9,30.04,South,189,19.0,21.0,-999,-99.99,,,-99.99,,2013-04-10 22:23:00,
2013-04-10 18:34:00,65.0,-99.9,30.04,SSW,193,19.0,19.0,-999,-99.99,,,-99.99,,2013-04-10 22:34:00,
2013-04-10 18:43:00,64.0,-99.9,30.04,SSW,194,18.0,19.0,-999,-99.99,,,-99.99,,2013-04-10 22:43:00,
2013-04-10 18:53:00,64.0,-99.9,30.04,SSW,197,19.0,21.0,-999,-99.99,,,-99.99,,2013-04-10 22:53:00,
2013-04-10 19:03:00,63.0,-99.9,30.03,SSW,210,15.0,16.0,-999,-99.99,,,-99.99,,2013-04-10 23:03:00,
2013-04-10 19:12:00,63.0,-99.9,30.03,SSW,213,12.0,14.0,-999,-99.99,,,-99.99,,2013-04-10 23:12:00,
2013-04-10 19:23:00,63.0,-99.9,30.03,SSW,210,14.0,15.0,-999,-99.99,,,-99.99,,2013-04-10 23:23:00,
2013-04-10 19:33:00,62.0,-99.9,30.03,SSW,204,16.0,19.0,-999,-99.99,,,-99.99,,2013-04-10 23:33:00,
2013-04-10 19:43:00,63.0,-99.9,30.03,SSW,205,18.0,19.0,-999,-99.99,,,-99.99,,2013-04-10 23:43:00,
2013-04-10 19:53:00,62.0,-99.9,30.03,SSW,208,15.0,17.0,-999,-99.99,,,-99.99,,2013-04-10 23:53:00,
2013-04-10 20:02:00,62.0,-99.9,30.03,SSW,211,13.0,14.0,-999,-99.99,,,-99.99,,2013-04-11 00:02:00,
2013-04-10 20:13:00,61.0,-99.9,30.03,SSW,211,12.0,13.0,-999,-99.99,,,-99.99,,2013-04-11 00:13:00,
2013-04-10 20:23:00,61.0,-99.9,30.03,SSW,211,11.0,11.0,-999,-99.99,,,-99.99,,2013-04-11 00:23:00,
2013-04-10 20:32:00,62.0,-99.9,30.02,SSW,210,12.0,12.0,-999,-99.99,,,-99.99,,2013-04-11 00:32:00,
2013-04-10 20:43:00,61.0,-99.9,30.02,SSW,212,10.0,11.0,-999,-99.99,,,-99.99,,2013-04-11 00:43:00,
2013-04-10 20:53:00,62.0,-99.9,30.02,SSW,211,9.0,10.0,-999,-99.99,,,-99.99,,2013-04-11 00:53:00,
2013-04-10 21:02:00,61.0,-99.9,30.02,SSW,213,9.0,9.0,-999,-99.99,,,-99.99,,2013-04-11 01:02:00,
2013-04-10 21:13:00,61.0,-99.9,30.02,SSW,211,10.0,11.0,-999,-99.99,,,-99.99,,2013-04-11 01:13:00,
2013-04-10 21:22:00,60.0,-99.9,30.02,SSW,211,10.0,11.0,-999,-99.99,,,-99.99,,2013-04-11 01:22:00,
2013-04-10 21:33:00,60.0,-99.9,30.02,SSW,212,10.0,10.0,-999,-99.99,,,-99.99,,2013-04-11 01:33:00,
2013-04-10 21:42:00,60.0,-99.9,30.03,SSW,211,10.0,11.0,-999,-99.99,,,-99.99,,2013-04-11 01:42:00,
2013-04-10 21:52:00,60.0,-99.9,30.03,SSW,211,11.0,12.0,-999,-99.99,,,-99.99,,2013-04-11 01:52:00,
2013-04-10 22:03:00,60.0,-99.9,30.03,SSW,208,13.0,13.0,-999,-99.99,,,-99.99,,2013-04-11 02:03:00,
2013-04-10 22:13:00,60.0,-99.9,30.03,SSW,211,13.0,14.0,-999,-99.99,,,-99.99,,2013-04-11 02:13:00,
2013-04-10 22:22:00,60.0,-99.9,30.03,SSW,210,15.0,16.0,-999,-99.99,,,-99.99,,2013-04-11 02:22:00,
2013-04-10 22:32:00,60.0,-99.9,30.03,SSW,211,15.0,15.0,-999,-99.99,,,-99.99,,2013-04-11 02:32:00,
2013-04-10 22:42:00,60.0,-99.9,30.03,SSW,211,15.0,15.0,-999,-99.99,,,-99.99,,2013-04-11 02:42:00,
2013-04-10 22:53:00,60.0,-99.9,30.03,SW,215,14.0,14.0,-999,-99.99,,,-99.99,,2013-04-11 02:53:00,
2013-04-10 23:02:00,61.0,-99.9,30.03,SW,217,14.0,15.0,-999,-99.99,,,-99.99,,2013-04-11 03:02:00,
2013-04-10 23:12:00,62.0,-99.9,30.03,SSW,211,16.0,16.0,-999,-99.99,,,-99.99,,2013-04-11 03:12:00,
2013-04-10 23:22:00,61.0,-99.9,30.04,SSW,213,14.0,15.0,-999,-99.99,,,-99.99,,2013-04-11 03:22:00,
2013-04-10 23:33:00,62.0,-99.9,30.03,SW,215,13.0,13.0,-999,-99.99,,,-99.99,,2013-04-11 03:33:00,
2013-04-10 23:43:00,61.0,-99.9,30.03,SW,214,12.0,15.0,-999,-99.99,,,-99.99,,2013-04-11 03:43:00,
2013-04-10 23:54:00,61.0,-99.9,30.03,SW,214,12.0,13.0,-999,-99.99,,,-99.99,,2013-04-11 03:54:00,